Jonesboro, AR

4:05 AM CDT on September 25, 2017 (GMT -0500)
Jonesboro Municipal

Weather History for KJBR - May, 2013

Change the Weather History Date:

Thursday, May 30, 2013

  Actual Average Record
Temperature  
Mean Temperature 82 °F 74 °F  
Max Temperature 89 °F 85 °F 99 °F (1911)
Min Temperature 74 °F 62 °F 45 °F (1984)
Degree Days  
Heating Degree Days 0 0  
Month to date heating degree days 71 35  
Since 1 July heating degree days 3556 3650  
Cooling Degree Days 17 9  
Month to date cooling degree days 170 156  
Year to date cooling degree days 219 203  
Growing Degree Days 30 (Base 50)    
Moisture  
Dew Point 69 °F    
Average Humidity 73    
Maximum Humidity 93    
Minimum Humidity 53    
Precipitation  
Precipitation 0.18 in 0.10 in 1.54 in (1909)
Month to date precipitation 7.52 4.53  
Year to date precipitation 24.05 21.20  
Snow  
Snow 0.00 in - - ()
Month to date snowfall 0.0  
Snow Depth 0.00 in    
Sea Level Pressure  
Sea Level Pressure 29.92 in    
Wind  
Wind Speed 15 mph (South)    
Max Wind Speed 28 mph    
Max Gust Speed 35 mph    
Visibility 10 miles    
Events Rain , Thunderstorm    
T = Trace of Precipitation, MM = Missing Value Source: NWS Daily Summary

Daily Weather History Graph

Daily Weather History Graph

Search for Another Location

Airport or City:

Trip Planner

Search our weather history database for the weather conditions in past years. The results will help you decide how hot, cold, wet, or windy it might be!

Date:

Astronomy

May. 30, 2013 Rise Set
Actual Time 5:48 AM CDT 8:12 PM CDT
Civil Twilight 5:18 AM CDT 8:41 PM CDT
Nautical Twilight 4:42 AM CDT 9:18 PM CDT
Astronomical Twilight 4:02 AM CDT 9:58 PM CDT
Moon 12:20 AM CDT (5/30) 11:49 AM CDT (5/30)
Length of Visible Light 15h 23m
Length of Day
14h 24m
Waning Gibbous, 62% of the Moon is Illuminated
May 30
Waning Gibbous
May 31
Last Quarter
Jun 8
New
Jun 16
First Quarter
Jun 23
Full

Hourly Weather History & Observations

Time (CDT) Temp. Heat Index Dew Point Humidity Pressure Visibility Wind Dir Wind Speed Gust Speed Precip Events Conditions
12:53 AM 75.0 °F - 69.1 °F 82% 29.93 in 10.0 mi SSE 11.5 mph - N/A   Clear
1:53 AM 73.9 °F - 69.1 °F 85% 29.93 in 10.0 mi South 9.2 mph - N/A   Clear
2:53 AM 75.0 °F - 68.0 °F 79% 29.92 in 10.0 mi South 8.1 mph - N/A   Clear
3:53 AM 75.0 °F - 68.0 °F 79% 29.92 in 10.0 mi South 10.4 mph - N/A   Clear
4:53 AM 75.0 °F - 69.1 °F 82% 29.93 in 10.0 mi South 13.8 mph 19.6 mph N/A   Scattered Clouds
5:42 AM 75.2 °F - 69.8 °F 83% 29.95 in 10.0 mi South 13.8 mph - N/A   Overcast
5:53 AM 75.0 °F - 69.1 °F 82% 29.94 in 10.0 mi South 16.1 mph - N/A   Overcast
6:53 AM 75.9 °F - 69.1 °F 79% 29.94 in 10.0 mi South 16.1 mph - N/A   Mostly Cloudy
7:53 AM 77.0 °F - 69.1 °F 76% 29.95 in 10.0 mi South 16.1 mph 27.6 mph N/A   Mostly Cloudy
8:31 AM 77.0 °F - 69.8 °F 78% 29.96 in 10.0 mi South 18.4 mph 29.9 mph N/A   Mostly Cloudy
8:53 AM 77.0 °F - 69.1 °F 76% 29.96 in 10.0 mi South 18.4 mph 25.3 mph N/A   Mostly Cloudy
9:53 AM 80.1 °F 82.9 °F 69.1 °F 69% 29.96 in 10.0 mi South 15.0 mph 26.5 mph N/A   Overcast
10:51 AM 80.6 °F 83.9 °F 69.8 °F 70% 29.98 in 10.0 mi South 23.0 mph 29.9 mph N/A   Overcast
10:53 AM 81.0 °F 84.1 °F 69.1 °F 67% 29.97 in 10.0 mi South 21.9 mph 29.9 mph N/A   Overcast
11:53 AM 84.9 °F 88.8 °F 69.1 °F 59% 29.97 in 10.0 mi SSW 15.0 mph 23.0 mph N/A   Mostly Cloudy
12:53 PM 86.0 °F 89.4 °F 68.0 °F 55% 29.94 in 10.0 mi SSW 16.1 mph 26.5 mph N/A   Partly Cloudy
1:53 PM 88.0 °F 91.4 °F 68.0 °F 51% 29.91 in 10.0 mi South 17.3 mph 26.5 mph N/A   Mostly Cloudy
2:53 PM 87.1 °F 90.6 °F 68.0 °F 53% 29.89 in 10.0 mi South 18.4 mph 27.6 mph N/A   Partly Cloudy
3:53 PM 84.9 °F 87.6 °F 66.9 °F 55% 29.88 in 10.0 mi South 17.3 mph 24.2 mph N/A   Clear
4:53 PM 84.0 °F 87.0 °F 68.0 °F 58% 29.86 in 10.0 mi SSE 19.6 mph 24.2 mph N/A   Partly Cloudy
5:53 PM 82.9 °F 85.8 °F 68.0 °F 60% 29.87 in 10.0 mi South 10.4 mph - N/A   Mostly Cloudy
6:10 PM 82.4 °F 84.6 °F 66.2 °F 58% 29.88 in 10.0 mi South 19.6 mph 27.6 mph N/A Thunderstorm Overcast
6:38 PM 80.6 °F 82.7 °F 66.2 °F 61% 29.87 in 10.0 mi South 8.1 mph - 0.00 in Rain Light Rain
6:53 PM 79.0 °F - 70.0 °F 74% 29.86 in 10.0 mi Variable 3.5 mph - 0.00 in Rain Light Rain
7:05 PM 80.6 °F 83.9 °F 69.8 °F 70% 29.89 in 10.0 mi SSE 8.1 mph - 0.00 in Rain , Thunderstorm Light Rain
7:51 PM 78.8 °F - 71.6 °F 78% 29.88 in 10.0 mi SSE 12.7 mph - 0.03 in   Scattered Clouds
7:53 PM 78.1 °F - 71.1 °F 79% 29.87 in 10.0 mi SSE 10.4 mph - 0.03 in   Scattered Clouds
8:53 PM 77.0 °F - 66.9 °F 71% 29.90 in 10.0 mi South 13.8 mph - N/A   Scattered Clouds
9:53 PM 75.0 °F - 69.1 °F 82% 29.91 in 10.0 mi South 10.4 mph - 0.01 in Rain Light Rain
10:53 PM 75.0 °F - 70.0 °F 84% 29.93 in 10.0 mi SSE 12.7 mph - 0.01 in Rain Light Rain
11:53 PM 73.9 °F - 71.1 °F 91% 29.88 in 10.0 mi South 20.7 mph 31.1 mph 0.08 in Rain Light Rain